Miscellaneous Local Product
Issued by NWS Hastings, NE

Home | Current Version | Previous Version | Graphics & Text | Print | Product List | Glossary Off
Versions: 1 2 3 4 5 6 7 8 9 10 11 12 13 14 15 16 17 18 19 20 21 22 23 24 25 26 27 28 29 30 31 32 33 34 35 36 37 38 39 40 41 42 43 44 45 46 47 48 49 50

000
AXUS43 KGID 181002
MISGRI

GID CWA HOURLY WEATHER ROUNDUP
NATIONAL WEATHER SERVICE HASTINGS NE
400 AM CST THU DEC 18 2014

NOTE: "FAIR" INDICATES FEW OR NO CLOUDS BELOW 12,000 FEET WITH NO
SIGNIFICANT WEATHER AND/OR OBSTRUCTIONS TO VISIBILITY.

...SOUTH CENTRAL NEBRASKA...

CITY           SKY/WX    TMP DP  RH WIND       PRES   REMARKS
GRAND ISLAND   CLOUDY    23  21  92 SE5       30.17F WCI  17
HASTINGS       CLOUDY    24  21  88 E5        30.15F FOG     WCI  18
KEARNEY        CLOUDY    25  19  80 E3        30.14F
ORD            CLOUDY    23  20  88 SE6       30.13F WCI  16
YORK           LGT SNOW  25 N/A N/A SE5       30.19S WCI  19
AURORA         CLOUDY    24  22  94 E5        30.17F WCI  18
LEXINGTON      CLOUDY    25  23  91 SE3       30.12S
HOLDREGE       CLOUDY    24  22  91 CALM      30.13S
HEBRON         LGT SNOW  25  23  91 CALM      30.19F

...NEBRASKA PANHANDLE...

CITY           SKY/WX    TMP DP  RH WIND       PRES   REMARKS
CHADRON        FOG       13  11  92 S7        30.03R VSB 1/4 WCI   3
ALLIANCE       FOG       14  11  87 SW6       30.00S VSB 1/2 WCI   5
SCOTTSBLUFF    FOG       11   9  92 NW8       30.02S VSB 1/4 WCI  -1
SIDNEY         MOCLDY    10   7  87 W6        30.00R WCI   0

...WESTERN AND NORTH CENTRAL NEBRASKA...

CITY           SKY/WX    TMP DP  RH WIND       PRES   REMARKS
VALENTINE      CLOUDY    24  21  88 SW8       30.07S WCI  15
AINSWORTH      CLOUDY    22  22  97 SW3       30.09S FOG
ONEILL         CLOUDY    21  20  95 SE3       30.15S
BROKEN BOW     CLOUDY    24  22  91 S6        30.10F WCI  17
IMPERIAL       CLOUDY    26  22  84 SW7       30.06R WCI  18
NORTH PLATTE   CLOUDY    24  23  96 SW6       30.08F FOG     WCI  17
MCCOOK         CLOUDY    22  20  92 E3        30.09F FOG

...EASTERN NEBRASKA...

CITY           SKY/WX    TMP DP  RH WIND       PRES   REMARKS
NORFOLK        LGT SNOW  25  19  78 SE6       30.18F WCI  18
SO SIOUX CITY  CLOUDY    25  20  81 E5        30.23F WCI  19
TEKAMAH        CLOUDY    27  20  75 E6        30.24F WCI  20
COLUMBUS       CLOUDY    25  16  68 SE6       30.21S WCI  18
ALBION         LGT SNOW  24  20  87 SE7       30.17F WCI  15
OMAHA EPPLEY   CLOUDY    28  20  71 E6        30.25S WCI  22
OFFUTT AFB     CLOUDY    28  21  75 E5        30.23S WCI  22
MILLARD        CLOUDY    29  21  72 CALM      30.23F
LINCOLN        LGT SNOW  27  21  78 E5        30.23S WCI  22
NEBRASKA CITY  LGT SNOW  27  24  87 CALM      30.22S
BEATRICE       LGT SNOW  27  24  86 CALM      30.20S
FALLS CITY     LGT SNOW  27  25  92 E3        30.22S VSB 3/4

...NORTHERN KANSAS...

CITY           SKY/WX    TMP DP  RH WIND       PRES   REMARKS
GOODLAND       CLOUDY    23  21  92 SE3       30.04S
HILL CITY      CLOUDY    26  24  92 E7        30.12F WCI  18
NORTON         CLOUDY    25  23  93 E3        30.10F
PHILLIPSBURG   CLOUDY    28  28 100 NE5       30.15S WCI  23
SMITH CENTER   CLEAR     23  21  93 E6        30.15F WCI  16
BELOIT         CLOUDY    27  25  93 CALM      30.17S
HAYS           CLOUDY    25  18  74 NE8       30.12S WCI  16
RUSSELL        LGT SNOW  26  25  96 NE6       30.12S FOG     WCI  19
CONCORDIA      LGT SNOW  25  24  96 E3        30.17S FOG
SALINA         LGT SNOW  28  26  92 NE5       30.17F FOG     WCI  23
TOPEKA         LGT SNOW  29  27  92 E8        30.21F FOG     WCI  21



USA.gov is the U.S. government's official web portal to all federal, state and local government web resources and services.